This is the latest recevied weather packets stored in our database for station/object KC9DRE. If no packets are shown the sender has not sent any weather packets the latest 10 day(s).
| Time | Temp. | Humidity | Pressure | Rain* | Wind** | Luminosity | Snow |
|---|---|---|---|---|---|---|---|
| 1777856126 | 12.78° C | 61% | 1014.1 hPa | 0 mm | - | 0 W/m² | - |
| 1777855824 | 13.33° C | 58% | 1014.3 hPa | 0 mm | - | 0 W/m² | - |
| 1777855522 | 13.89° C | 55% | 1014.3 hPa | 0 mm | - | 1 W/m² | - |
| 1777855218 | 15° C | 54% | 1014.1 hPa | 0 mm | - | 2 W/m² | - |
| 1777854929 | 15° C | 52% | 1013.8 hPa | 0 mm | - | 4 W/m² | - |
| 1777854611 | 15.56° C | 50% | 1013.8 hPa | 0 mm | - | 6 W/m² | - |
| 1777854308 | 15.56° C | 49% | 1013.9 hPa | 0 mm | - | 9 W/m² | - |
| 1777854006 | 15.56° C | 50% | 1013.9 hPa | 0 mm | - | 12 W/m² | - |
| 1777853703 | 16.11° C | 46% | 1013.9 hPa | 0 mm | - | 15 W/m² | - |
| 1777853399 | 16.11° C | 46% | 1013.5 hPa | 0 mm | - | 19 W/m² | - |
| 1777853097 | 16.11° C | 46% | 1013.7 hPa | 0 mm | - | 23 W/m² | - |
| 1777852794 | 16.67° C | 45% | 1013.7 hPa | 0 mm | - | 27 W/m² | - |
| 1777852492 | 16.67° C | 45% | 1013.5 hPa | 0 mm | - | 33 W/m² | - |
| 1777852188 | 16.67° C | 44% | 1013.7 hPa | 0 mm | - | 37 W/m² | - |
| 1777851886 | 17.22° C | 43% | 1013.6 hPa | 0 mm | - | 39 W/m² | - |
| 1777851584 | 17.22° C | 43% | 1013.6 hPa | 0 mm | - | 45 W/m² | - |
| 1777851280 | 17.22° C | 42% | 1013.5 hPa | 0 mm | - | 55 W/m² | - |
| 1777850977 | 17.22° C | 42% | 1013.6 hPa | 0 mm | - | 63 W/m² | - |
| 1777850674 | 17.78° C | 43% | 1013.6 hPa | 0 mm | - | 60 W/m² | - |
| 1777850372 | 17.78° C | 42% | 1013.6 hPa | 0 mm | - | 75 W/m² | - |
| 1777850069 | 17.78° C | 41% | 1013.8 hPa | 0 mm | - | 88 W/m² | - |
| 1777849765 | 17.78° C | 41% | 1013.6 hPa | 0 mm | - | 103 W/m² | - |
| 1777849462 | 17.78° C | 41% | 1013.7 hPa | 0 mm | - | 114 W/m² | - |
| 1777849160 | 17.78° C | 41% | 1013.7 hPa | 0 mm | - | 125 W/m² | - |
| 1777848856 | 18.33° C | 41% | 1013.7 hPa | 0 mm | - | 141 W/m² | - |
* Rain latest hour (hover to see other rain measurements)
** Current wind speed in m/s (hover to see current wind gust speed)